Location: Ahausen
(50.4985°N, 8.2722°E)
Time: 11:25:19
(UTC+00:00)

CZ-2C R/B - Pass Details

Date: 18 September 2020
Orbit: 785 x 870 km, 98.2° (Epoch: 25 October)

Event Time Altitude Azimuth Distance (km) Brightness Sun altitude
Rises 19:15:38 0° 15° (NNE) 3,407 6.0 -16.6°
Reaches altitude 10° 19:17:59 10° 16° (NNE) 2,480 5.2 -17.0°
Maximum altitude 19:23:32 79° 104° (ESE) 879 2.6 -17.8°
Drops below altitude 10° 19:29:07 10° 191° (S) 2,503 5.0 -18.6°
Sets 19:31:30 0° 193° (SSW) 3,441 5.7 -18.9°
